This is the latest recevied weather packets stored in our database for station/object DB0GMN-13. If no packets are shown the sender has not sent any weather packets the latest 10 day(s).
| Time | Temp. | Humidity | Pressure | Rain* | Wind** | Luminosity | Snow |
|---|---|---|---|---|---|---|---|
| 1777458966 | -1.11° C | 96% | 1029.7 hPa | 0 mm | - | 832 W/m² | - |
| 1777453568 | - | 59% | 1029.9 hPa | 0 mm | - | 716 W/m² | - |
| 1777449947 | -10.56° C | - | 1029.7 hPa | 0 mm | - | 583 W/m² | - |
| 1777447531 | -1.11° C | 96% | 1029.6 hPa | 0 mm | - | 69 W/m² | - |
| 1777441551 | -1.11° C | 93% | 1029.1 hPa | 0 mm | - | 116 W/m² | - |
| 1777440345 | -1.11° C | 95% | 1029 hPa | 0 mm | - | 43 W/m² | - |
| 1777438532 | -1.11° C | 94% | 1028.7 hPa | 0 mm | - | 34 W/m² | - |
| 1777437927 | -1.11° C | 98% | 1028.6 hPa | 0 mm | - | 32 W/m² | - |
| 1777436118 | -1.11° C | 95% | 1028.6 hPa | 0 mm | - | 20 W/m² | - |
| 1777435574 | -1.11° C | 97% | 1028.4 hPa | 0 mm | - | 15 W/m² | - |
| 1777431951 | -1.11° C | 93% | 1028.1 hPa | 0 mm | - | 0 W/m² | - |
| 1777421143 | -1.11° C | 93% | 1027.9 hPa | 0 mm | - | 0 W/m² | - |
| 1777412163 | -1.11° C | 98% | 1027 hPa | 0 mm | - | 0 W/m² | - |
| 1777411540 | -1.11° C | 99% | 1027.1 hPa | 0 mm | - | 0 W/m² | - |
| 1777409727 | -1.11° C | 96% | 1026.8 hPa | 0 mm | - | 0 W/m² | - |
| 1777400147 | - | - | 1025.9 hPa | 0 mm | - | 17 W/m² | - |
| 1777398375 | - | 99% | 1025.8 hPa | 0 mm | - | 42 W/m² | - |
| 1777391131 | 7.22° C | 99% | 1025 hPa | 0 mm | - | 319 W/m² | - |
| 1777388795 | 30.56° C | 99% | 1025.4 hPa | 0 mm | - | 440 W/m² | - |
| 1777388171 | 5° C | 95% | 1025.4 hPa | 0 mm | - | 470 W/m² | - |
| 1777386963 | 14.44° C | 75% | 1025.5 hPa | 0 mm | - | 528 W/m² | - |
| 1777380943 | 3.33° C | 99% | 1026.1 hPa | 0 mm | - | 765 W/m² | - |
| 1777377362 | - | - | 1026.3 hPa | 0 mm | - | 827 W/m² | - |
| 1777372532 | - | - | 1026.4 hPa | 0 mm | - | 829 W/m² | - |
| 1777370718 | - | - | 1026.3 hPa | 0 mm | - | 801 W/m² | - |
* Rain latest hour (hover to see other rain measurements)
** Current wind speed in m/s (hover to see current wind gust speed)